Regional Weather Roundup
Issued by NWS

Home | Current Version | Previous Version | Text Only | Print | Product List | Glossary Off
Versions: 1 2 3 4 5 6 7 8 9 10 11 12 13 14 15 16 17 18 19 20 21 22 23 24 25 26 27 28 29 30 31 32 33 34 35 36 37 38 39 40 41 42 43 44 45 46 47 48 49 50

343
ASUS43 KFSD 280510
RWRSD

WEATHER ROUNDUP FOR SOUTH DAKOTA
NATIONAL WEATHER SERVICE SIOUX FALLS SD
1200 AM CDT FRI APR 28 2017

NOTE: "FAIR" INDICATES FEW OR NO CLOUDS BELOW 12,000 FEET WITH NO
SIGNIFICANT WEATHER AND/OR OBSTRUCTIONS TO VISIBILITY.


SDZ001>005-009-010-012>017-280600-
NORTHWEST AND NORTH CENTRAL SOUTH DAKOTA

CITY           SKY/WX    TMP DP  RH WIND       PRES   REMARKS
BUFFALO          N/A     38  27  64 E13       29.70S
FAITH            N/A     38  30  73 SE7       29.78R
MOBRIDGE       CLEAR     39  23  52 E12       29.79R
$$

SDZ012>016-024>037-041>051-057-063-072>074-280600-
SOUTHWEST AND SOUTH CENTRAL SOUTH DAKOTA

CITY           SKY/WX    TMP DP  RH WIND       PRES   REMARKS
RAPID CTY ARPT CLOUDY    39  31  72 NE8       29.75R
PIERRE         CLEAR     32  27  81 E5        29.78R WCI  27
CUSTER         LGT SNOW  31  28  89 E12G21    29.68R FOG     WCI  22
ELLSWORTH AFB  CLOUDY    40  32  74 E8        29.74S
PHILIP         CLOUDY    36  31  82 E6        29.77R
PINE RIDGE     LGT RAIN  41  39  93 E14       29.69R
SPEARFISH      FAIR      37  32  81 E13       29.74R
WINNER         FAIR      38  32  79 SE7       29.78R
$$

SDZ004>011-016>023-039-040-280600-
NORTHEAST SOUTH DAKOTA

CITY           SKY/WX    TMP DP  RH WIND       PRES   REMARKS
ABERDEEN       CLEAR     30  26  85 N5        29.82R WCI  25
WATERTOWN      CLEAR     31  27  85 SW5       29.81R WCI  26
BROOKINGS      CLEAR     31  27  85 S7        29.82S WCI  24
SISSETON         N/A     35  30  82 NW8       29.80R WCI  29
$$

SDZ017-020-022-023-036>040-048>070-280600-
SOUTHEAST SOUTH DAKOTA

CITY           SKY/WX    TMP DP  RH WIND       PRES   REMARKS
SIOUX FALLS    CLEAR     34  30  85 E8        29.84R WCI  27
HURON          CLEAR     34  28  79 SE8       29.82R WCI  27
CHAMBERLAIN    CLEAR     37  31  78 NE5       29.80R
MITCHELL       CLEAR     35  28  75 E9        29.83R WCI  28
YANKTON        CLEAR     41  28  60 N12       29.80R
$$

ABBREVIATIONS USED IN REMARKS
   TC - TEMPERATURE IN CELSIUS
  WCI - WIND CHILL INDEX
   HX - HEAT INDEX
  VSB - VISIBILITY





USA.gov is the U.S. government's official web portal to all federal, state and local government web resources and services.